Location: Great Malvern
(52.1167°N, 2.3167°W)
Time: 07:14:31
(UTC+00:00)

Resurs 01 Rocket - Pass Details

Date: 18 September 2020
Orbit: 633 x 645 km, 98.0° (Epoch: 22 October)

Event Time Altitude Azimuth Distance (km) Brightness Sun altitude
Exits shadow 19:19:16 14° 102° (ESE) 1,785 3.2 -10.4°
Maximum altitude 19:21:50 23° 60° (ENE) 1,393 3.0 -10.8°
Drops below altitude 10° 19:25:18 10° 9° (N) 2,054 4.3 -11.3°
Sets 19:27:53 0° 355° (N) 2,967 5.4 -11.6°
